Main page
METAR-TAF:

METAR-TAF

Airports :

Okeechobee County Airport

Okeechobee, Florida, United States

latitude: 27-15-58N, longitude: 080-51-04W, elevation: 33 ft

Current weather observation

The report was made 27 minutes ago, at 08:55 UTC
Calm wind
Temperature 75°F
Humidity 100%
Pressure 29.91 in. Hg
Visibility: 3 miles
Few clouds at a height of 200 ft
mist

METAR: KOBE 240855Z AUTO 00000KT 3SM BR FEW002 24/24 A2991 RMK AO2

Time: 05:22 (09:22 UTC)


TAF: missing

Weather observations and forecasts of more than 4000 airports (METAR and TAF reports).

The available stations are represented by yellow and red dots on the map.

Hover mouse over dot to see the name of the station.

Then click to see weather observations and forecasts.

To change the map : click on the green buttons with a black cross to zoom in, on the green button with a dash to zoom out, or on the green arrows for adjacent maps.


METAR-TAF: